Location: Launois
(49.6535°N, 4.5395°E)
Time: 14:48:09
(UTC+00:00)

Sep Motor Cover - Visible Passes

Search period start: 03 October 2024 00:00
Search period end: 13 October 2024 00:00
Orbit: 616 x 787 km, 98.0° (Epoch: 03 October)

Date Brightness Start Highest point End Pass type
(mag) Time Alt. Az. Time Alt. Az. Time Alt. Az.
03 Oct ? 18:31:11 10° S 18:36:18 57° W 18:41:26 10° NNW visible
04 Oct ? 19:14:48 10° SSW 19:19:06 26° W 19:23:25 10° NW visible
05 Oct ? 18:18:22 10° S 18:23:34 72° WSW 18:28:45 10° NNW visible
05 Oct ? 20:00:33 10° WSW 20:02:10 11° W 20:03:48 10° WNW visible
06 Oct ? 19:01:37 10° SSW 19:06:16 32° W 19:10:53 10° NNW visible
07 Oct ? 18:05:35 10° SSE 18:10:48 90° WSW 18:15:59 10° NNW visible
07 Oct ? 19:46:22 10° WSW 19:49:12 15° W 19:52:03 10° NW visible
08 Oct ? 18:48:30 10° SSW 18:53:24 41° W 18:58:15 10° NNW visible
09 Oct ? 17:52:49 10° SSE 17:58:00 73° ENE 18:03:07 10° N visible
09 Oct ? 19:32:39 10° SW 19:36:14 19° W 19:39:48 10° NW visible
10 Oct ? 18:35:26 10° S 18:40:30 51° W 18:45:29 10° NNW visible
11 Oct ? 17:40:06 10° SSE 17:45:11 57° ENE 17:50:10 10° N visible
11 Oct ? 19:19:07 10° SW 19:23:13 23° W 19:27:17 10° NW visible
12 Oct ? 18:22:25 10° S 18:27:35 66° WSW 18:32:37 10° NNW visible
